Weather History for Logansport, IN

Change the Weather History Date:

Wednesday, February 27, 2013

  Actual Average Record
Temperature  
Mean Temperature 32 °F -  
Max Temperature 33 °F 45 °F 33 °F (2013)
Min Temperature 32 °F 28 °F 5 °F (2014)
Degree Days  
Heating Degree Days 32    
Moisture  
Dew Point 31 °F    
Average Humidity 97    
Maximum Humidity 100    
Minimum Humidity 93    
Precipitation  
Precipitation 0.06 in - - ()
Sea Level Pressure  
Sea Level Pressure 29.58 in    
Wind  
Wind Speed 10 mph (WSW)    
Max Wind Speed 18 mph    
Max Gust Speed 24 mph    
Visibility 4 miles    
Events Fog , Rain , Snow    
Averages and records for this station are not official NWS values.
T = Trace of Precipitation, MM = Missing Value Source: NWS Daily Summary

Daily Weather History Graph

Daily Weather History Graph

Search for Another Location

Airport:

Trip Planner

Search our weather history database for the weather conditions in past years. The results will help you decide how hot, cold, wet, or windy it might be!

Date:

Astronomy

Feb. 27, 2013 Rise Set
Actual Time 7:22 AM EST 6:34 PM EST
Civil Twilight 6:54 AM EST 7:02 PM EST
Nautical Twilight 6:22 AM EST 7:34 PM EST
Astronomical Twilight 5:51 AM EST 8:05 PM EST
Moon 8:56 PM EST (2/27) 7:56 AM EST (2/27)
Length of Visible Light 12h 07m
Length of Day
11h 12m
Waning Gibbous, 96% of the Moon is Illuminated
Feb 27
Waning Gibbous
Mar 4
Last Quarter
Mar 11
New
Mar 19
First Quarter
Mar 27
Full

Hourly Weather History & Observations

Time (EST) Temp. Windchill Dew Point Humidity Pressure Visibility Wind Dir Wind Speed Gust Speed Precip Events Conditions
12:15 AM 32.0 °F 28.7 °F 32.0 °F 100% 29.46 in 0.8 mi West 3.5 mph - 0.01 in Rain Light Rain
12:35 AM 32.0 °F 27.5 °F 32.0 °F 100% 29.47 in 0.8 mi WSW 4.6 mph - 0.01 in Snow Light Snow
1:15 AM 32.0 °F 27.5 °F 32.0 °F 100% 29.48 in 1.2 mi WSW 4.6 mph - 0.01 in Snow Light Snow
1:35 AM 32.0 °F 27.5 °F 32.0 °F 100% 29.48 in 1.2 mi WSW 4.6 mph - 0.02 in Snow Light Snow
1:55 AM 32.0 °F 27.5 °F 32.0 °F 100% 29.49 in 1.5 mi WSW 4.6 mph - 0.03 in Rain Light Rain
2:15 AM 32.0 °F 27.5 °F 32.0 °F 100% 29.49 in 1.8 mi WSW 4.6 mph - 0.01 in Snow Light Snow
2:35 AM 32.0 °F 26.4 °F 32.0 °F 100% 29.49 in 1.8 mi SW 5.8 mph - 0.02 in Snow Light Snow
2:55 AM 32.0 °F 26.4 °F 32.0 °F 100% 29.49 in 1.5 mi SW 5.8 mph - 0.03 in Rain Light Rain
3:15 AM 32.0 °F 25.6 °F 32.0 °F 100% 29.48 in 1.5 mi SW 6.9 mph - N/A Snow Light Snow
3:35 AM 32.0 °F 24.2 °F 32.0 °F 100% 29.47 in 1.8 mi SW 9.2 mph - N/A   Overcast
3:55 AM 32.0 °F 24.8 °F 32.0 °F 100% 29.48 in 1.8 mi SW 8.1 mph - N/A   Overcast
4:15 AM 32.0 °F 25.6 °F 32.0 °F 100% 29.48 in 1.5 mi SW 6.9 mph - N/A Snow Light Snow
4:35 AM 32.0 °F 23.6 °F 32.0 °F 100% 29.49 in 0.8 mi WSW 10.4 mph - N/A   Overcast
4:55 AM 32.0 °F 21.6 °F 32.0 °F 100% 29.50 in 0.5 mi WSW 15.0 mph - N/A Fog Fog
5:15 AM 32.0 °F 22.5 °F 32.0 °F 100% 29.51 in 0.5 mi WSW 12.7 mph - N/A Fog Fog
5:35 AM 32.0 °F 22.1 °F 32.0 °F 100% 29.51 in 0.5 mi WSW 13.8 mph - N/A Fog Fog
5:55 AM 32.0 °F 22.5 °F 32.0 °F 100% 29.51 in 0.5 mi WSW 12.7 mph - N/A Fog Fog
6:35 AM 32.0 °F 22.1 °F 32.0 °F 100% 29.53 in 3.0 mi WSW 13.8 mph - N/A   Overcast
6:55 AM 32.0 °F 21.6 °F 32.0 °F 100% 29.54 in 3.0 mi WSW 15.0 mph - N/A   Overcast
7:15 AM 32.0 °F 22.5 °F 32.0 °F 100% 29.54 in 1.8 mi WSW 12.7 mph 19.6 mph N/A Snow Light Snow
7:35 AM 32.0 °F 22.1 °F 32.0 °F 100% 29.55 in 0.5 mi SW 13.8 mph 20.7 mph N/A Fog Fog
7:55 AM 32.0 °F 22.1 °F 32.0 °F 100% 29.56 in 0.5 mi SW 13.8 mph 18.4 mph N/A Fog Fog
8:15 AM 32.0 °F 22.5 °F 32.0 °F 100% 29.56 in 0.8 mi SW 12.7 mph 18.4 mph N/A   Overcast
8:35 AM 32.0 °F 21.6 °F 32.0 °F 100% 29.57 in 1.0 mi SW 15.0 mph 20.7 mph N/A   Overcast
8:55 AM 32.0 °F 22.1 °F 32.0 °F 100% 29.58 in 1.0 mi SW 13.8 mph - N/A   Overcast
9:15 AM 32.0 °F 22.5 °F 32.0 °F 100% 29.58 in 1.0 mi SW 12.7 mph 18.4 mph N/A   Overcast
9:55 AM 32.0 °F 22.1 °F 32.0 °F 100% 29.59 in 1.5 mi SW 13.8 mph 18.4 mph N/A   Overcast
10:35 AM 32.0 °F 22.1 °F 32.0 °F 100% 29.59 in 1.5 mi SW 13.8 mph - N/A   Overcast
10:55 AM 32.0 °F 21.2 °F 32.0 °F 100% 29.58 in 1.8 mi SW 16.1 mph - N/A Rain Light Rain
11:15 AM 32.0 °F 22.1 °F 32.0 °F 100% 29.58 in 2.0 mi SW 13.8 mph - N/A Snow Light Snow
11:35 AM 32.0 °F 22.5 °F 32.0 °F 100% 29.58 in 3.0 mi SW 12.7 mph - N/A   Overcast
11:55 AM 32.0 °F 22.1 °F 32.0 °F 100% 29.58 in 5.0 mi SW 13.8 mph - N/A   Overcast
12:15 PM 32.0 °F 22.1 °F 32.0 °F 100% 29.58 in 7.0 mi SW 13.8 mph 18.4 mph N/A   Overcast
12:35 PM 33.8 °F 24.3 °F 32.0 °F 93% 29.58 in 10.0 mi WSW 13.8 mph - N/A   Overcast
12:55 PM 32.0 °F 22.1 °F 32.0 °F 100% 29.58 in 10.0 mi WSW 13.8 mph 18.4 mph N/A   Overcast
1:15 PM 33.8 °F 22.8 °F 32.0 °F 93% 29.58 in 10.0 mi WSW 18.4 mph - N/A   Overcast
1:35 PM 32.0 °F 21.2 °F 32.0 °F 100% 29.58 in 10.0 mi WSW 16.1 mph 20.7 mph N/A   Overcast
1:55 PM 32.0 °F 21.2 °F 32.0 °F 100% 29.58 in 10.0 mi WSW 16.1 mph 24.2 mph N/A   Overcast
2:15 PM 32.0 °F 21.6 °F 32.0 °F 100% 29.58 in 10.0 mi WSW 15.0 mph - N/A Snow Light Snow
2:35 PM 32.0 °F 22.1 °F 32.0 °F 100% 29.59 in 10.0 mi WSW 13.8 mph 19.6 mph N/A Snow Light Snow
2:55 PM 32.0 °F 22.1 °F 32.0 °F 100% 29.59 in 7.0 mi WSW 13.8 mph - N/A Snow Light Snow
3:35 PM 32.0 °F 21.2 °F 32.0 °F 100% 29.60 in 7.0 mi WSW 16.1 mph 21.9 mph N/A Snow Light Snow
3:55 PM 32.0 °F 21.2 °F 32.0 °F 100% 29.60 in 7.0 mi WSW 16.1 mph - N/A Snow Light Snow
4:15 PM 32.0 °F 21.2 °F 30.2 °F 93% 29.61 in 7.0 mi WSW 16.1 mph 21.9 mph N/A Snow Light Snow
4:35 PM 32.0 °F 21.6 °F 30.2 °F 93% 29.61 in 5.0 mi WSW 15.0 mph 24.2 mph N/A Snow Light Snow
4:55 PM 32.0 °F 20.8 °F 30.2 °F 93% 29.62 in 4.0 mi WSW 17.3 mph 23.0 mph N/A Snow Light Snow
5:15 PM 32.0 °F 20.5 °F 30.2 °F 93% 29.62 in 4.0 mi WSW 18.4 mph - N/A Snow Light Snow
5:35 PM 32.0 °F 21.2 °F 30.2 °F 93% 29.63 in 4.0 mi WSW 16.1 mph - N/A Snow Light Snow
5:55 PM 32.0 °F 20.8 °F 30.2 °F 93% 29.63 in 4.0 mi WSW 17.3 mph 20.7 mph N/A Snow Light Snow
6:15 PM 32.0 °F 20.8 °F 30.2 °F 93% 29.63 in 4.0 mi WSW 17.3 mph 21.9 mph N/A Snow Light Snow
6:35 PM 32.0 °F 21.2 °F 30.2 °F 93% 29.64 in 3.0 mi WSW 16.1 mph 23.0 mph N/A Snow Light Snow
6:55 PM 32.0 °F 22.1 °F 30.2 °F 93% 29.64 in 2.5 mi WSW 13.8 mph - N/A Snow Light Snow
7:15 PM 32.0 °F 22.1 °F 30.2 °F 93% 29.65 in 3.0 mi WSW 13.8 mph - N/A Snow Light Snow
7:35 PM 32.0 °F 22.1 °F 30.2 °F 93% 29.65 in 4.0 mi WSW 13.8 mph - N/A Snow Light Snow
7:55 PM 32.0 °F 21.6 °F 30.2 °F 93% 29.65 in 4.0 mi WSW 15.0 mph - N/A Snow Light Snow
8:15 PM 32.0 °F 21.2 °F 30.2 °F 93% 29.65 in 7.0 mi WSW 16.1 mph - N/A Snow Light Snow
8:35 PM 32.0 °F 22.1 °F 30.2 °F 93% 29.65 in 5.0 mi WSW 13.8 mph 18.4 mph N/A Snow Light Snow
8:55 PM 32.0 °F 21.2 °F 30.2 °F 93% 29.65 in 3.0 mi WSW 16.1 mph - N/A Snow Light Snow
9:15 PM 32.0 °F 21.6 °F 30.2 °F 93% 29.65 in 2.5 mi WSW 15.0 mph 19.6 mph N/A Snow Light Snow
9:35 PM 32.0 °F 21.2 °F 30.2 °F 93% 29.65 in 2.5 mi WSW 16.1 mph - N/A Snow Light Snow
9:55 PM 32.0 °F 21.6 °F 30.2 °F 93% 29.65 in 3.0 mi WSW 15.0 mph - N/A Snow Light Snow
10:15 PM 32.0 °F 22.5 °F 30.2 °F 93% 29.65 in 3.0 mi WSW 12.7 mph - N/A Snow Light Snow
10:35 PM 32.0 °F 22.5 °F 30.2 °F 93% 29.65 in 4.0 mi West 12.7 mph - N/A Snow Light Snow
10:55 PM 32.0 °F 22.1 °F 30.2 °F 93% 29.65 in 3.0 mi WSW 13.8 mph 19.6 mph N/A Snow Light Snow
11:15 PM 32.0 °F 22.5 °F 30.2 °F 93% 29.65 in 7.0 mi WSW 12.7 mph - N/A Snow Light Snow
11:35 PM 32.0 °F 21.6 °F 30.2 °F 93% 29.65 in 7.0 mi WSW 15.0 mph - N/A Snow Light Snow
11:55 PM 32.0 °F 21.2 °F 30.2 °F 93% 29.64 in 5.0 mi WSW 16.1 mph - N/A Snow Light Snow